This demonstration page uses our WeatherBlox Daily Observations layout. Learn more.

Left ArrowRight Arrow

Hourly Observations for July 14, 2022

Temp ( °F °C ) Dew Point ( °F °C ) Humidity (%) Winds ( mph kmh ) Pressure ( in mb ) Visibility ( mi km ) Precip ( " mm )
12:52 am 00:52 Clear 75 23.9 66 18.9 74 74 SSE 8 13 29.99 1016 10 16 0.00 0.00
1:52 am 01:52 Clear 74 23.3 65 18.3 74 74 SSE 7 11 29.99 1016 10 16 0.00 0.00
2:52 am 02:52 Clear 74 23.3 65 18.3 74 74 SSE 7 11 29.99 1016 10 16 0.00 0.00
3:52 am 03:52 Partly Cloudy 73 22.8 65 18.3 76 76 SSE 8 13 29.99 1016 10 16 0.00 0.00
4:52 am 04:52 Mostly Cloudy 74 23.3 64 17.8 71 71 SSE 8 13 29.98 1015 10 16 0.00 0.00
5:52 am 05:52 Mostly Cloudy 73 22.8 64 17.8 74 74 SSE 8 13 30.00 1016 10 16 0.00 0.00
6:52 am 06:52 Mostly Sunny 73 22.8 64 17.8 74 74 SE 10 17 30.00 1016 10 16 0.00 0.00
7:52 am 07:52 Mostly Sunny 75 23.9 64 17.8 69 69 SSE 14 22 30.01 1016 10 16 0.00 0.00
8:52 am 08:52 Partly Cloudy 78 25.6 64 17.8 62 62 S 14 22 30.01 1016 10 16 0.00 0.00
9:52 am 09:52 Partly Cloudy 83 28.3 65 18.3 55 55 S 16 26 30.00 1016 10 16 0.00 0.00
10:52 am 10:52 Partly Cloudy 84 28.9 65 18.3 53 53 S 18 30 29.99 1016 10 16 0.00 0.00
11:52 am 11:52 Partly Cloudy 87 30.6 65 18.3 48 48 S 17 28 29.98 1015 10 16 0.00 0.00
12:52 pm 12:52 Partly Cloudy 88 31.1 66 18.9 48 48 SSE 20 31 29.98 1015 10 16 0.00 0.00
1:52 pm 13:52 Partly Cloudy 90 32.2 66 18.9 45 45 S 15 24 29.96 1015 10 16 0.00 0.00
2:52 pm 14:52 Partly Cloudy 92 33.3 65 18.3 41 41 SSE 21 33 29.94 1014 10 16 0.00 0.00
3:52 pm 15:52 Mostly Sunny 91 32.8 65 18.3 42 42 S 20 31 29.92 1013 10 16 0.00 0.00
4:52 pm 16:52 Mostly Sunny 92 33.3 67 19.4 44 44 SSE 23 37 29.90 1013 10 16 0.00 0.00
5:52 pm 17:52 Mostly Sunny 92 33.3 68 20 46 46 SSE 18 30 29.89 1012 10 16 0.00 0.00
6:52 pm 18:52 Partly Cloudy 91 32.8 69 20.6 49 49 SSE 20 31 29.88 1012 10 16 0.00 0.00
7:52 pm 19:52 Partly Cloudy 89 31.7 69 20.6 52 52 S 18 30 29.88 1012 10 16 0.00 0.00
8:52 pm 20:52 Partly Cloudy 86 30 69 20.6 57 57 SSE 15 24 29.88 1012 10 16 0.00 0.00
9:52 pm 21:52 Partly Cloudy 84 28.9 68 20 59 59 SSE 15 24 29.88 1012 10 16 0.00 0.00
10:52 pm 22:52 Mostly Cloudy 84 28.9 67 19.4 57 57 SSE 12 19 29.89 1012 10 16 0.00 0.00
11:52 pm 23:52 Mostly Cloudy 84 28.9 67 19.4 57 57 S 17 28 29.88 1012 10 16 0.00 0.00

Powered by AerisWeather